Theta_e
309 309 309 309 309 309 309 309 309 310 310 310 310 310 310 310 310 311 311 311 311 311 311 311 311 311 311 311 311 312 312 313 314 314 315 315 315 315 315 314 313 314 313 313 313 314 314 314 314 314 314 314 316 317 316 318 316 318 328 327 317 318 322 322 324 319 316 319 317 315 315 315 317 316 315 316 316 315 316 315 315 315 315 315 314 314 314 314
310 309 309 310 310 310 310 310 310 310 310 310 310 310 310 310 310 310 311 311 311 311 311 311 311 311 311 312 311 312 313 314 315 315 316 316 315 315 314 314 314 315 314 314 313 313 314 314 315 314 315 315 316 316 317 318 315 321 326 319 322 330 322 317 319 315 314 317 314 315 315 314 316 315 314 316 316 315 316 316 315 315 315 315 314 314 314 314
310 310 310 310 310 310 310 310 310 310 310 310 310 310 310 310 311 311 311 311 311 311 311 311 311 311 311 311 311 313 314 315 316 316 316 315 315 314 315 315 315 316 315 314 313 314 314 314 315 314 314 315 315 316 316 318 316 317 318 320 331 326 315 313 315 315 315 315 313 314 314 314 315 314 315 315 314 315 315 315 314 314 315 315 314 314 314 314
310 310 310 310 309 309 310 310 310 310 310 310 310 310 310 310 311 311 310 311 311 311 311 311 311 311 312 312 313 314 315 317 317 315 315 314 315 315 315 315 316 316 316 315 313 314 315 314 315 314 314 314 314 315 315 317 317 315 318 325 325 313 314 317 315 316 316 315 314 313 313 314 314 314 314 314 315 317 315 314 314 313 314 314 314 314 314 314
310 310 309 309 309 309 310 309 310 310 310 310 310 310 310 310 310 310 310 311 311 311 311 312 312 313 313 314 315 316 317 320 318 314 314 315 315 315 314 316 316 316 316 315 314 314 315 315 315 315 315 314 314 315 315 316 316 317 318 319 316 311 316 317 314 317 315 314 314 312 313 314 314 314 314 314 316 317 315 314 314 314 314 314 314 314 314 314
310 310 310 310 309 309 310 309 310 310 310 310 310 311 311 311 311 311 312 312 313 313 314 314 314 315 316 317 318 320 320 320 316 313 314 314 314 314 314 315 316 316 316 315 313 314 315 315 315 315 314 313 314 314 314 316 316 319 319 314 314 314 315 316 316 316 314 314 314 313 314 313 313 314 313 313 315 315 314 314 314 313 313 313 314 313 314 314
310 310 310 310 309 310 309 309 310 310 311 311 311 311 312 312 313 313 314 314 315 315 316 317 318 319 320 321 322 322 322 321 319 317 316 315 315 315 314 315 316 317 316 315 313 314 314 315 315 314 314 313 313 313 313 314 314 319 321 315 314 314 313 315 315 314 314 314 314 313 313 312 313 314 313 313 313 314 313 314 314 313 313 313 313 313 314 314
311 310 310 309 309 309 309 310 310 310 311 311 312 313 313 314 314 315 316 316 317 318 319 320 321 321 321 321 320 319 320 322 321 321 320 319 318 317 316 315 316 317 316 314 313 314 314 315 315 314 314 313 313 313 312 313 314 317 320 316 314 314 314 314 314 314 314 313 314 313 312 312 313 312 312 312 313 313 313 313 313 313 313 313 313 313 313 313
311 310 309 309 309 309 310 310 310 311 312 312 313 314 314 315 316 317 318 319 320 321 321 321 321 320 319 318 317 318 319 320 320 321 321 321 321 319 318 317 317 317 315 314 313 313 314 314 315 314 314 313 313 313 312 314 315 315 315 314 313 313 313 314 314 314 313 313 313 313 312 312 311 312 312 311 312 312 313 313 313 313 313 314 314 313 312 312
311 310 309 309 309 309 310 310 311 312 312 313 314 315 316 317 318 319 320 321 321 321 321 320 320 319 319 318 316 318 320 320 320 321 321 322 322 321 320 319 318 317 314 314 313 313 314 314 315 314 314 314 314 313 312 314 315 313 312 312 312 313 313 313 314 314 313 312 313 313 313 312 310 313 314 311 311 312 312 313 313 313 313 314 314 313 313 311
310 310 309 309 309 309 309 310 311 312 313 314 315 316 318 319 320 320 321 321 320 320 320 319 319 318 318 317 316 317 319 320 320 320 320 320 321 321 321 319 317 316 315 314 314 314 313 314 315 315 315 315 313 313 312 312 313 312 312 313 313 311 313 313 313 313 313 313 313 312 312 310 310 313 314 311 311 312 312 313 313 313 313 313 313 313 313 311
309 309 308 308 308 309 309 311 311 313 314 316 317 318 319 320 320 320 320 319 319 318 318 318 318 318 318 317 317 318 319 319 319 319 319 319 320 320 319 318 316 315 316 317 317 316 314 314 315 315 316 314 314 313 313 313 312 312 312 314 316 314 315 314 311 311 312 314 313 311 314 315 314 313 311 310 311 312 312 313 312 312 313 312 312 312 311 311
308 308 308 308 308 309 310 311 313 315 316 317 318 319 319 320 319 319 318 318 318 318 318 318 318 318 318 318 319 319 319 319 319 319 318 318 318 318 318 317 316 315 316 318 319 318 316 315 314 316 315 314 314 313 314 312 311 313 311 312 316 317 320 313 309 311 312 313 312 312 318 324 322 313 309 310 311 311 312 311 311 311 312 311 311 311 310 309
307 307 307 307 308 309 311 313 315 317 318 318 318 318 319 318 318 318 317 317 318 318 318 318 318 319 319 319 319 319 319 319 319 319 318 318 317 317 317 316 316 316 317 318 318 318 316 315 315 316 315 315 314 312 315 313 313 315 310 315 319 316 325 319 308 311 314 312 311 313 318 323 323 313 309 310 310 311 312 310 310 310 310 310 310 309 309 308
306 307 307 308 309 311 313 315 317 318 318 317 317 318 317 317 317 317 317 317 318 318 319 319 319 320 319 319 319 319 319 318 319 319 318 317 317 317 316 316 316 316 318 317 317 316 315 316 316 315 314 314 314 315 319 319 322 322 313 322 325 316 325 324 309 309 314 312 310 313 319 320 319 312 309 311 310 312 311 308 309 308 308 308 308 308 308 307
307 307 307 309 311 313 315 317 317 317 316 316 316 316 316 317 317 317 318 318 319 320 320 320 320 319 319 318 318 318 318 318 318 318 318 317 316 316 316 316 317 316 317 315 316 315 315 316 315 314 313 312 316 323 326 320 324 326 317 321 327 319 321 321 312 308 309 311 310 312 317 321 317 308 309 311 311 312 310 308 307 307 307 307 307 307 307 306
307 307 308 310 312 314 316 316 316 316 315 315 316 316 316 316 317 318 318 319 321 321 320 320 319 318 319 318 317 317 318 318 318 318 318 317 316 316 316 316 316 316 315 315 315 315 315 316 313 314 313 310 315 322 324 320 322 325 317 316 323 320 318 319 319 312 307 311 313 312 314 318 316 308 308 311 310 311 310 307 306 305 306 305 306 307 306 306
308 308 309 311 313 315 316 316 315 315 315 315 315 316 316 317 318 319 320 321 321 320 319 319 318 320 321 318 317 318 318 318 318 318 317 317 316 316 316 316 315 315 315 314 314 315 315 313 312 316 314 311 314 317 320 322 323 326 321 318 321 319 317 318 319 314 311 315 315 315 316 316 317 311 308 310 310 310 308 306 305 304 304 305 305 305 305 305
308 309 310 311 314 315 315 315 314 314 315 315 316 317 318 318 319 320 321 321 320 320 322 319 319 322 322 318 317 318 318 318 317 317 317 316 316 316 316 315 315 315 313 314 314 313 313 312 313 316 316 314 314 314 318 320 321 327 327 325 325 322 320 318 317 314 311 315 317 317 317 317 318 314 308 308 309 308 307 305 304 304 304 304 304 304 304 304
309 310 311 312 314 314 314 314 314 314 315 316 316 318 319 319 321 321 320 320 320 321 322 320 319 320 320 318 317 317 317 317 317 317 316 316 315 315 315 313 313 313 312 317 316 311 311 315 316 317 316 315 314 312 314 318 320 321 322 324 324 322 319 316 317 315 309 313 320 317 316 317 317 314 308 305 307 306 304 304 303 303 303 303 303 303 303 304
312 312 312 312 313 313 314 314 314 315 315 316 318 319 320 320 322 322 320 320 320 320 320 320 320 320 319 319 318 317 317 317 317 317 316 316 315 315 314 312 313 313 311 313 313 310 311 316 317 316 315 313 313 311 311 315 317 316 317 318 319 319 318 314 314 314 309 312 320 315 313 317 315 314 307 303 307 306 302 302 301 301 301 301 302 302 302 302
314 315 314 313 313 314 314 314 315 315 316 317 318 320 320 320 320 320 319 320 320 320 320 320 320 320 320 319 318 317 317 318 317 317 316 315 315 314 313 313 315 315 312 310 312 312 313 316 315 312 310 312 313 312 311 313 313 313 314 314 316 317 317 317 314 313 310 312 320 317 313 317 316 314 307 301 303 303 301 301 301 300 301 300 301 301 301 301
317 316 315 313 313 316 316 316 316 316 317 318 319 320 321 320 320 319 320 321 322 321 320 321 321 320 320 320 319 318 317 318 318 317 316 315 314 313 312 312 315 317 315 313 315 315 316 318 314 309 309 313 315 313 312 312 312 314 314 315 318 316 317 323 319 314 313 311 315 316 314 316 315 313 307 300 300 300 300 300 300 300 300 300 300 300 300 301
319 317 315 313 315 318 318 318 319 318 317 318 319 320 321 320 320 321 320 320 322 322 320 321 321 320 321 320 319 319 317 317 318 317 317 315 314 313 312 311 314 316 314 313 314 315 318 318 310 308 312 315 315 315 314 314 315 316 316 316 317 317 317 321 319 316 316 314 313 313 316 322 320 317 312 303 300 300 299 299 299 299 299 299 300 300 301 301
319 318 315 314 318 319 319 320 319 317 318 318 319 320 321 321 320 321 320 322 324 321 319 320 320 320 321 320 320 319 317 318 318 318 317 315 315 313 312 311 313 316 314 313 313 314 317 313 309 313 316 314 314 317 317 317 317 318 320 318 316 318 318 318 316 315 319 322 315 311 320 332 330 325 316 305 303 302 299 298 298 298 298 299 300 300 301 302
317 317 315 316 319 320 320 320 318 318 319 319 319 320 321 321 320 320 320 324 327 322 319 320 320 321 320 319 319 317 319 319 317 318 317 315 315 314 314 312 312 315 315 313 313 315 316 312 312 318 318 315 315 317 317 316 317 320 320 318 315 314 316 316 316 316 322 324 314 309 318 329 332 332 319 307 307 305 300 299 298 298 298 298 299 300 300 301
316 316 314 317 320 320 320 320 318 319 320 320 319 320 321 320 319 318 320 326 327 322 321 320 318 319 318 317 317 319 324 321 315 316 315 314 314 313 316 315 312 313 311 312 317 317 317 315 314 316 318 318 317 318 318 314 319 323 318 318 319 316 317 319 317 318 322 320 316 315 316 319 325 327 315 307 311 308 302 301 299 298 298 298 298 299 300 301
316 315 315 317 319 319 320 320 319 319 319 320 320 321 321 320 319 319 323 331 328 320 320 318 315 316 316 316 317 318 319 316 316 316 313 313 313 312 316 316 315 316 310 313 322 316 313 318 318 316 317 317 317 321 318 314 320 322 314 314 318 317 319 320 318 318 316 314 320 322 316 316 323 322 311 307 314 314 307 305 302 298 298 298 298 299 300 301
315 315 315 316 318 319 320 320 320 320 320 321 321 321 321 320 319 320 325 329 325 318 318 317 314 314 314 315 315 313 312 312 315 315 311 312 313 311 315 313 312 315 310 311 322 318 311 313 314 316 318 317 319 319 313 315 319 313 308 313 316 315 317 318 319 319 315 314 322 324 317 318 325 325 315 311 316 318 311 306 302 298 298 298 298 299 300 301
315 315 315 316 319 320 319 320 319 320 322 321 322 321 319 320 321 324 327 328 325 318 314 314 314 312 313 315 314 311 310 311 311 312 311 311 312 310 312 312 310 315 314 312 318 317 310 307 308 313 315 313 315 311 305 311 312 306 312 319 317 318 319 319 321 318 315 320 324 321 317 317 322 325 320 315 316 316 313 308 301 298 298 298 298 299 300 300
314 315 315 317 320 319 320 320 318 320 322 321 322 320 319 320 322 328 328 325 324 319 314 315 313 312 314 317 317 312 309 310 309 312 313 310 311 310 311 313 312 317 319 316 317 315 311 310 310 310 310 309 313 311 305 306 305 309 321 322 317 321 320 320 323 319 318 326 323 315 313 314 319 324 321 316 313 310 312 311 304 299 298 298 299 300 300 300
314 314 315 316 319 320 321 320 318 320 322 322 321 318 320 323 324 329 327 323 326 322 318 318 313 313 315 316 317 313 311 312 309 312 315 313 313 312 313 316 317 322 322 318 318 315 314 316 312 309 308 309 317 317 310 307 307 313 322 321 320 323 321 322 324 320 321 323 316 312 313 313 317 320 316 315 312 305 304 305 302 299 298 298 299 299 299 300
313 314 315 316 320 322 322 321 319 320 322 322 320 318 321 325 326 327 325 325 326 319 316 318 314 314 315 315 316 312 311 314 310 311 312 312 314 313 313 315 316 322 323 317 316 316 318 318 312 311 311 310 315 318 316 314 312 314 318 320 322 323 324 328 324 319 320 318 310 310 313 314 317 316 314 314 308 300 299 300 300 300 299 299 299 299 299 299
314 314 316 318 321 322 322 322 321 320 322 321 319 319 322 326 327 327 325 325 323 317 315 315 312 313 314 316 317 313 313 315 311 312 312 312 314 315 315 313 311 319 322 316 316 317 321 322 317 315 314 312 313 314 318 319 313 313 316 318 321 324 327 328 325 324 323 319 313 309 313 321 321 313 307 304 300 297 299 300 300 300 299 300 299 299 299 299
314 315 317 319 321 322 321 322 322 321 321 321 320 321 324 326 327 327 326 323 322 320 315 313 313 314 314 315 315 312 314 315 312 312 313 313 316 317 317 315 311 317 321 318 318 316 317 323 320 313 309 310 312 311 312 316 315 312 313 315 318 322 325 320 317 319 319 318 317 313 315 321 316 307 300 298 298 297 298 299 299 300 299 299 299 298 299 299
315 315 318 320 321 322 321 322 322 321 321 320 321 322 324 325 326 327 326 323 322 318 314 314 316 316 315 314 314 311 311 314 313 313 313 313 314 315 317 316 312 313 317 318 320 317 316 321 317 309 308 308 309 309 309 313 317 313 311 317 317 315 322 321 313 311 311 316 318 315 317 318 313 309 303 300 302 300 297 297 298 298 298 298 298 298 299 299
316 316 318 320 321 322 321 321 321 321 321 320 322 323 323 323 323 324 324 320 318 315 315 320 319 316 316 315 315 314 313 314 313 313 314 313 314 314 315 316 312 310 313 316 319 319 320 324 317 310 312 308 304 307 308 307 312 316 316 317 313 311 318 321 318 317 316 317 319 316 317 318 317 315 308 303 307 305 300 297 296 296 297 297 297 298 299 300
317 316 318 320 321 322 322 321 321 321 321 321 323 323 324 323 319 317 318 317 315 315 319 323 320 317 318 317 317 315 313 316 313 313 315 314 315 315 313 315 312 309 311 311 315 317 317 322 318 310 312 310 305 309 312 307 307 314 315 312 313 317 320 317 317 321 319 318 321 320 316 315 316 317 313 311 314 312 303 298 297 296 296 296 297 299 299 300
318 317 318 319 321 322 322 322 321 321 320 321 324 323 323 323 317 314 316 316 317 318 319 323 322 320 318 318 319 316 313 315 313 312 315 314 315 313 310 314 314 309 308 309 314 317 314 318 319 311 309 311 310 312 316 313 308 309 310 308 312 319 320 318 317 318 319 319 321 320 318 317 317 317 318 317 316 311 304 299 298 296 296 297 298 299 299 300
319 317 317 318 320 321 321 321 320 319 320 322 324 322 321 321 318 315 316 317 319 319 320 324 324 323 320 318 319 318 316 316 312 312 316 314 315 314 310 314 314 309 308 308 312 316 313 315 319 314 309 311 314 314 315 315 311 311 313 312 312 313 315 318 316 315 319 321 321 319 317 319 318 312 313 314 311 306 303 301 298 296 297 298 298 299 299 299
318 317 317 318 318 319 319 319 318 318 320 321 322 321 319 319 318 317 316 316 318 318 319 324 324 323 323 320 321 320 318 318 314 313 316 314 315 317 313 312 313 310 310 309 312 316 314 315 320 318 313 314 318 314 310 312 313 313 314 314 314 313 315 317 316 315 317 319 321 319 317 319 315 306 306 309 307 303 300 299 298 297 297 297 298 298 299 300
317 317 317 317 319 319 318 318 317 318 319 320 320 320 318 317 318 317 315 316 318 318 318 320 321 323 324 322 321 321 320 320 318 316 318 317 318 318 313 311 310 309 312 314 313 314 315 318 320 320 317 316 314 309 305 308 311 312 313 315 314 314 315 317 317 317 316 316 317 318 318 318 311 303 303 303 301 300 299 298 298 298 298 298 298 299 299 300
316 316 317 317 319 318 318 318 318 318 318 318 318 318 317 317 317 317 316 316 318 318 318 319 318 320 321 320 320 321 320 320 319 318 320 320 319 317 312 310 310 310 313 317 315 312 313 318 318 318 319 316 313 310 308 308 311 312 314 315 314 315 317 317 316 317 318 317 317 317 318 317 310 302 299 298 297 298 299 299 299 299 300 302 301 301 300 300
315 315 315 316 317 317 318 319 319 318 318 317 318 318 317 317 316 317 317 317 317 318 319 320 318 317 319 318 319 320 319 320 319 317 319 320 316 313 310 310 311 313 314 316 316 313 314 319 319 319 321 319 317 316 314 312 312 314 316 315 315 317 317 315 314 316 317 317 317 317 317 317 312 305 301 299 299 299 298 299 300 301 303 304 303 302 301 299
315 314 313 313 315 315 317 318 318 317 317 317 318 318 317 317 316 316 317 316 316 317 319 319 317 317 318 317 317 318 318 319 320 317 317 318 315 311 309 310 311 313 313 313 314 313 316 319 318 318 320 320 319 319 316 315 315 314 314 313 313 314 314 314 315 316 316 316 316 316 316 315 311 307 306 304 304 304 301 299 300 301 303 304 304 303 301 300
315 314 313 312 313 314 315 316 315 316 317 317 318 318 318 318 316 315 316 316 316 316 317 317 316 316 318 317 317 318 317 317 319 318 317 318 317 312 308 309 310 311 312 312 312 314 317 318 317 317 319 319 318 316 314 315 316 315 314 313 313 312 311 313 316 315 315 315 315 315 315 315 312 309 308 306 307 308 304 299 300 302 302 303 303 303 302 301
314 314 312 311 312 312 313 313 314 315 316 317 318 318 318 318 317 316 316 317 316 316 316 316 316 317 318 318 318 318 318 317 317 318 317 318 317 311 307 308 308 309 311 311 311 315 318 317 317 318 317 316 316 315 313 315 316 316 316 315 314 313 311 312 313 314 314 314 314 315 313 314 314 311 310 309 308 307 303 300 302 303 303 303 303 303 303 302
312 312 311 311 312 311 311 313 313 314 315 316 317 318 318 318 318 318 317 315 315 316 317 317 317 318 318 318 318 318 317 318 317 317 317 317 316 312 310 309 307 307 310 310 309 314 318 317 316 317 316 315 315 313 313 314 313 313 315 315 314 313 311 311 311 311 313 313 313 313 312 313 313 312 312 311 307 304 303 302 303 303 303 303 302 302 302 302
309 309 309 310 311 309 309 311 312 313 315 315 316 317 317 318 317 317 316 315 315 316 317 318 317 317 317 317 318 317 316 317 317 316 316 316 316 315 315 313 309 305 307 310 308 309 315 316 315 315 315 315 313 311 311 311 311 311 312 312 313 312 309 309 309 309 310 311 311 309 309 309 309 310 310 307 303 302 303 302 302 302 302 302 301 301 301 300
307 307 307 308 308 306 307 309 312 313 313 314 316 316 316 316 317 317 315 315 316 316 316 317 317 316 317 316 317 318 317 317 318 317 316 316 315 315 315 316 312 306 306 310 309 308 312 315 312 312 314 314 311 308 308 309 310 310 311 310 309 309 307 306 307 307 307 308 308 307 307 307 305 304 304 303 302 302 301 301 301 301 301 300 300 300 300 300
306 306 306 307 307 306 306 307 309 311 312 312 313 314 314 315 315 316 315 314 315 316 315 316 317 316 315 315 316 317 315 315 315 314 314 314 313 313 313 313 313 311 308 308 309 310 311 311 309 310 314 314 308 305 306 305 305 307 309 308 307 308 308 306 305 307 308 308 308 306 307 308 304 300 299 300 300 298 298 299 300 300 300 300 299 299 299 300
306 305 305 305 306 306 305 305 307 308 310 311 311 311 313 314 313 314 315 312 311 313 314 314 315 315 315 314 315 315 313 312 313 311 311 311 310 310 310 309 310 312 310 307 308 310 309 310 309 310 314 313 304 301 303 304 306 309 309 307 306 306 307 305 303 305 305 306 308 307 307 306 303 300 301 301 298 296 297 299 299 299 299 298 299 299 299 300
Wind_Speed
9 8 8 8 8 8 8 7 7 7 6 6 6 5 5 5 6 6 6 6 7 7 7 7 8 8 9 9 10 10 11 12 13 14 15 14 13 8 5 4 4 2 1 2 2 1 2 2 2 1 1 1 1 2 4 4 4 3 3 4 1 2 3 4 6 6 3 2 4 6 7 4 4 7 8 9 9 9 10 13 9 3 5 9 11 11 10 9
10 10 10 9 9 9 8 8 8 8 7 7 7 6 6 7 7 7 7 7 8 8 8 8 8 9 10 10 11 11 12 14 15 15 14 12 6 3 4 3 2 2 2 3 3 2 2 2 2 1 1 0 2 2 2 3 5 3 3 2 2 5 4 4 6 6 3 2 4 5 6 3 5 7 7 5 8 11 11 14 7 4 10 11 10 10 8 8
12 11 11 10 10 10 9 9 9 9 8 8 8 8 8 8 8 8 8 8 9 9 9 9 9 10 10 11 12 12 14 16 16 13 8 3 4 7 5 3 2 3 4 4 4 3 3 3 2 2 0 1 2 3 3 3 3 2 4 1 5 6 4 4 5 6 4 5 5 4 5 5 7 6 4 2 6 10 8 9 4 5 14 12 10 9 7 7
13 13 12 12 11 11 11 11 10 10 10 9 9 9 9 9 9 9 9 10 10 10 10 10 10 11 11 12 12 13 15 15 11 4 3 6 8 7 4 2 4 5 6 4 4 4 4 3 3 2 0 1 3 3 3 4 2 1 3 3 4 3 1 4 4 5 6 5 5 5 5 7 7 4 4 1 3 8 7 5 5 9 13 10 10 11 10 10
15 14 14 13 13 12 12 12 12 11 11 11 10 10 10 10 10 10 10 11 11 11 11 11 11 12 12 13 13 13 12 8 2 4 7 7 5 3 1 3 6 6 7 5 5 5 5 4 3 1 1 2 3 3 2 3 2 1 2 3 3 3 1 5 2 3 5 5 7 6 5 7 5 4 6 4 3 6 7 9 13 13 9 7 9 10 11 10
16 15 15 15 14 13 13 13 13 13 12 12 11 11 11 11 11 11 11 12 12 13 13 13 13 13 14 13 13 12 7 2 1 3 6 5 4 5 5 6 7 8 8 6 5 6 5 4 2 1 2 2 2 1 2 1 1 1 3 3 2 3 5 7 6 6 6 7 9 7 8 8 7 7 7 9 12 11 11 14 14 9 4 5 8 9 10 10
17 16 16 16 15 14 14 14 14 13 13 13 12 12 11 11 11 12 13 13 14 14 14 14 13 12 12 12 12 10 8 8 7 6 7 8 9 10 10 10 10 9 9 6 6 6 6 5 3 1 2 2 1 0 2 1 1 2 2 4 4 5 7 9 10 11 11 12 14 13 14 13 8 6 7 11 13 11 10 7 5 4 4 4 6 8 9 9
17 17 17 17 16 16 15 15 15 14 14 13 13 12 12 12 13 13 13 14 15 14 14 13 12 12 11 11 10 9 11 12 10 10 11 11 13 13 13 12 12 10 9 7 6 6 6 5 4 2 1 1 1 1 1 2 1 3 3 5 4 7 9 12 15 16 16 15 16 14 15 15 10 7 8 12 10 5 1 3 2 1 3 6 8 9 7 7
19 18 18 18 17 17 16 16 16 15 15 14 13 13 13 13 13 13 13 13 13 13 13 12 12 12 10 11 9 7 11 11 8 10 10 10 12 13 14 14 12 10 8 7 7 7 6 4 4 4 2 2 2 1 1 1 2 2 3 5 6 11 14 16 17 17 15 14 13 10 13 13 7 5 6 6 2 4 5 5 3 1 4 8 10 11 9 8
20 19 19 18 18 18 17 17 16 16 15 14 14 13 13 13 13 13 13 12 13 13 13 12 12 11 10 11 7 4 8 8 6 7 7 8 9 11 13 13 11 9 6 6 7 8 6 4 3 4 3 2 2 1 1 2 2 2 4 7 10 14 16 16 17 19 16 14 13 8 11 10 3 2 2 5 8 6 4 4 2 2 5 7 8 10 12 11
21 20 20 19 19 18 18 17 17 16 15 15 14 14 13 13 13 13 13 12 13 12 12 12 11 11 11 11 9 7 9 9 7 7 7 8 8 8 10 10 9 7 5 4 6 7 7 6 4 3 3 1 2 1 2 2 2 4 6 8 11 13 15 15 15 17 11 8 9 6 7 6 1 2 4 7 7 3 3 3 1 3 4 5 6 8 10 11
22 21 20 20 19 19 18 18 17 16 15 15 14 14 13 13 13 13 13 12 12 11 11 11 11 11 11 12 15 14 13 13 12 11 11 10 9 9 8 9 9 8 7 4 4 6 7 8 6 5 4 3 2 0 1 1 3 5 5 5 9 10 10 10 7 5 1 2 3 1 3 4 3 4 6 5 4 3 2 3 2 1 2 4 4 6 8 9
23 22 21 20 20 19 18 18 17 16 15 15 14 14 13 13 13 12 12 12 11 11 11 11 11 11 10 12 16 16 14 14 15 15 15 14 13 11 10 10 10 9 8 6 6 6 7 9 8 7 5 4 2 1 1 1 2 4 3 2 5 8 7 5 2 1 1 2 2 3 3 6 6 3 5 5 3 2 3 4 3 3 2 3 4 6 7 7
23 22 21 20 20 19 18 17 16 16 15 14 14 13 13 13 12 12 12 11 11 11 11 11 11 11 11 13 16 15 15 14 14 15 15 15 14 12 12 11 11 10 9 9 7 7 7 8 8 6 5 4 3 3 1 4 3 2 1 2 3 2 5 6 2 1 1 2 4 5 2 6 7 4 5 7 3 4 5 4 2 3 3 2 3 5 6 6
23 22 21 20 19 18 17 16 16 15 15 14 14 13 13 13 12 12 12 12 12 11 11 11 11 10 10 13 15 14 15 15 16 16 15 15 13 12 13 12 12 11 10 9 7 7 7 8 8 5 4 4 4 3 2 4 3 2 1 3 3 2 5 8 4 2 2 0 3 5 2 7 8 3 6 8 7 7 6 4 2 2 2 1 2 3 5 5
22 21 20 20 19 18 17 16 16 15 14 14 13 13 13 13 13 12 12 12 12 12 11 10 10 9 7 10 13 12 13 14 14 15 16 15 14 13 13 13 12 11 9 8 7 8 8 7 6 3 4 4 4 4 3 4 4 3 0 4 3 3 3 6 4 1 2 2 2 1 2 5 4 3 6 10 8 6 5 5 3 2 1 1 0 2 3 4
22 22 21 20 19 18 17 16 16 15 14 14 13 13 13 13 13 13 13 13 12 12 10 8 7 6 9 12 11 11 12 12 12 13 14 14 13 13 12 12 11 10 8 7 7 8 8 6 5 3 1 3 3 4 3 3 4 3 0 3 4 4 2 3 4 3 3 3 1 1 2 7 8 2 6 9 6 4 5 5 3 3 1 2 1 1 2 3
23 22 22 21 20 18 17 16 16 15 14 13 13 13 13 13 13 13 13 13 12 9 8 8 5 2 8 13 11 10 9 10 12 11 11 11 12 12 11 10 9 9 8 6 7 8 7 4 4 1 2 2 3 5 3 5 5 4 3 3 4 3 4 5 4 2 4 3 1 1 3 9 13 4 6 8 4 2 6 5 3 3 2 2 2 1 2 3
23 23 22 21 20 19 17 16 16 16 15 14 13 13 12 12 12 13 14 13 11 7 4 8 9 4 4 6 8 9 8 9 10 10 11 11 11 11 10 9 8 10 9 5 5 7 7 3 4 1 2 4 6 8 10 9 6 7 6 5 4 4 6 5 4 4 1 2 4 5 6 8 12 7 5 6 2 5 7 6 5 4 3 3 3 2 3 3
24 23 22 21 20 19 17 17 17 17 15 14 13 12 11 10 7 9 12 16 17 15 13 12 12 11 9 6 5 7 7 8 8 9 11 11 12 11 10 9 8 8 7 4 4 5 6 4 3 7 7 8 10 11 9 5 6 5 5 4 4 5 6 3 2 5 1 2 5 5 6 8 11 8 3 4 4 6 7 7 6 5 5 5 4 4 4 3
23 22 23 22 20 18 18 19 18 18 16 14 14 11 9 7 4 4 7 12 16 18 19 19 18 18 17 12 7 6 7 8 8 10 11 12 12 10 10 10 7 4 3 4 4 3 5 5 10 11 7 8 9 8 5 3 5 3 3 3 3 4 6 4 2 5 1 2 5 2 3 9 11 5 4 3 4 4 5 8 7 8 7 6 6 6 5 5
23 22 22 22 21 19 20 20 19 18 17 15 14 13 11 9 8 8 7 8 14 17 18 20 22 24 23 19 15 11 9 8 9 12 13 15 15 11 10 9 5 3 2 4 5 2 2 6 13 8 5 5 1 4 6 5 4 2 2 1 4 3 4 6 3 4 2 2 4 3 2 9 9 1 5 4 4 4 4 7 8 9 9 8 8 7 7 7
24 22 21 22 21 21 21 20 19 19 17 16 15 15 13 11 10 10 7 6 12 18 19 20 23 26 26 24 22 18 14 11 11 14 16 18 18 13 11 9 4 3 3 4 6 5 3 7 11 6 8 7 2 3 6 4 3 3 3 2 5 3 0 4 4 4 2 1 2 1 1 8 7 1 5 5 6 8 6 7 8 8 9 9 9 8 9 9
27 24 22 22 21 22 20 18 18 19 18 17 16 15 13 11 9 7 7 5 7 11 16 20 21 25 27 24 21 20 19 17 12 13 19 22 19 12 9 8 5 4 5 7 7 6 6 6 3 7 7 7 4 3 6 5 3 3 5 6 5 4 5 6 4 4 2 3 1 1 2 6 5 2 0 3 6 8 8 8 8 8 8 9 9 10 10 12
28 24 22 22 22 22 18 16 19 20 18 17 16 14 12 10 6 4 4 3 5 6 9 14 16 19 22 20 19 18 14 15 15 13 17 24 22 11 6 8 6 5 7 6 5 5 7 5 4 6 3 5 6 4 5 7 3 3 5 10 10 7 7 5 2 4 3 4 2 1 1 5 5 4 4 3 3 4 4 6 7 8 8 9 10 11 12 14
25 24 23 24 23 20 16 17 20 20 18 17 15 13 12 9 4 1 1 2 4 4 3 8 9 9 13 14 17 14 5 8 15 15 16 22 24 13 5 5 4 4 5 6 2 3 5 4 3 5 4 6 5 4 6 7 5 2 5 8 9 7 5 4 2 2 1 3 2 2 2 4 6 5 3 4 3 2 2 3 5 7 8 10 11 12 14 16
25 24 24 25 24 22 19 19 20 17 15 15 14 13 12 9 6 2 3 3 5 5 6 7 8 8 9 11 17 14 2 3 9 13 18 22 22 15 7 4 3 2 4 5 1 2 4 3 2 4 5 5 4 5 6 8 7 3 4 5 6 7 7 6 6 4 3 3 3 2 2 3 4 5 2 4 3 1 1 2 3 7 9 10 12 13 16 18
28 26 25 27 27 25 24 20 17 16 15 13 13 14 12 11 9 5 3 3 3 5 5 5 8 8 10 14 19 12 2 5 6 8 17 21 19 12 6 6 6 4 4 5 4 3 3 4 5 7 4 4 5 4 7 10 5 4 2 6 6 6 6 5 6 4 1 1 4 4 1 2 5 4 1 4 3 6 5 6 6 9 11 12 14 15 17 19
30 28 28 28 27 26 25 20 16 16 15 12 13 15 13 13 9 6 3 3 2 4 3 6 8 7 11 15 13 5 3 4 2 7 14 16 16 7 3 6 6 5 2 2 5 3 1 3 5 7 5 5 4 1 6 9 3 3 6 7 5 5 5 4 5 3 2 1 5 6 4 3 5 5 2 2 4 7 6 6 7 11 13 14 15 17 18 20
31 30 30 30 28 27 26 23 20 16 14 14 14 16 17 14 7 4 3 4 2 3 3 6 6 6 12 11 4 1 3 2 4 10 9 8 11 5 4 5 5 5 1 4 1 3 1 1 1 4 4 5 5 3 2 4 4 7 7 6 6 6 5 3 2 4 2 2 6 7 5 4 4 5 4 4 4 4 5 4 6 10 14 16 17 18 20 20
32 31 32 33 33 30 28 29 24 18 17 16 17 20 19 9 4 3 7 2 1 2 4 4 2 6 11 7 2 3 2 2 5 10 6 3 6 4 5 5 3 4 2 4 2 4 3 0 2 3 5 5 7 4 2 3 5 7 4 4 4 3 3 4 4 3 0 5 5 4 2 3 4 5 4 5 4 4 5 5 8 12 17 19 20 20 21 21
32 31 34 36 35 32 32 31 25 21 20 18 21 23 15 3 2 6 5 2 1 4 4 4 3 5 7 3 2 4 3 2 4 6 4 3 4 4 3 4 4 3 2 4 3 4 3 4 3 1 4 6 6 4 3 3 3 4 4 6 4 2 2 2 3 0 3 6 4 3 2 2 5 6 5 5 4 3 3 5 10 17 21 23 23 22 22 22
32 32 36 38 36 35 34 30 24 24 23 21 23 19 8 2 7 9 7 2 1 3 3 4 3 4 7 4 1 3 3 2 4 3 2 3 3 4 3 2 6 4 1 3 2 0 3 5 1 2 3 8 8 5 2 1 2 4 5 6 4 2 1 2 3 2 4 4 2 3 2 2 4 4 4 4 2 3 6 8 11 20 25 26 26 24 23 23
32 34 38 39 38 37 34 31 29 27 25 25 22 10 3 7 7 6 9 7 1 1 3 4 5 5 6 4 3 5 3 2 5 4 2 4 4 5 5 4 4 3 3 3 2 4 3 4 4 5 3 8 10 6 6 6 4 3 3 5 4 4 4 4 4 3 4 3 2 2 1 3 3 2 3 4 3 4 5 7 10 18 25 27 27 25 25 25
31 35 40 40 41 42 35 32 33 29 29 28 17 6 7 11 6 3 7 6 2 2 3 4 6 6 3 2 3 5 4 3 4 5 3 5 4 5 5 6 7 4 5 4 2 3 3 5 6 3 1 8 9 4 6 7 3 2 2 4 2 4 4 2 2 5 3 2 3 2 3 4 3 1 3 3 3 4 3 3 12 18 23 27 27 27 27 27
31 37 42 43 46 45 37 35 35 33 34 26 10 7 12 10 5 4 4 5 6 6 6 3 4 4 4 2 2 5 3 1 4 4 3 3 3 5 4 5 9 8 6 6 3 2 2 5 5 2 2 3 4 3 4 4 3 2 2 3 4 4 6 4 1 1 4 1 4 2 3 4 1 1 2 2 3 3 3 4 13 18 23 26 28 29 29 29
33 38 44 47 49 45 40 38 36 37 38 23 8 9 9 6 5 4 2 4 7 10 9 4 4 6 6 4 4 6 3 1 4 4 3 3 3 6 5 4 8 13 11 6 3 3 4 3 4 1 1 2 1 4 5 4 4 5 3 5 3 2 4 3 1 3 3 2 4 1 3 4 1 2 2 2 2 4 2 4 9 15 20 24 28 31 31 31
37 39 44 51 50 45 43 40 38 42 35 16 10 13 7 4 5 4 3 4 6 8 7 6 6 6 6 6 4 6 6 3 5 4 4 3 4 6 8 5 7 16 18 10 1 2 4 1 5 1 2 2 2 4 4 5 3 4 3 3 3 3 2 2 2 2 1 3 4 2 3 3 4 4 2 4 8 8 6 5 6 11 19 24 29 32 32 31
39 35 38 50 52 48 46 43 43 44 26 7 10 13 3 2 4 4 6 5 4 6 6 5 5 3 4 6 4 6 8 7 7 6 4 4 4 6 8 5 5 12 17 13 5 1 3 2 4 2 1 1 2 2 3 2 1 3 2 1 1 2 3 3 3 3 3 2 4 4 4 3 5 5 7 10 11 10 9 7 8 13 22 29 33 35 35 34
41 26 25 43 50 49 48 45 41 32 13 6 11 9 1 2 3 6 9 5 3 3 4 3 4 3 4 5 2 5 7 6 8 6 4 4 4 4 6 5 4 5 8 10 6 1 3 2 3 2 2 2 2 2 6 6 4 2 3 3 1 1 2 1 1 2 3 3 2 4 6 6 3 3 6 7 6 8 11 10 10 18 27 32 34 35 36 36
39 17 15 33 41 46 48 36 24 14 5 7 10 7 3 3 3 6 7 6 3 2 2 3 4 4 4 4 3 4 5 4 6 4 3 4 3 2 5 7 9 8 5 5 5 3 3 3 3 1 0 3 4 4 3 5 4 4 5 6 6 4 3 1 3 2 3 3 3 4 7 7 3 1 2 3 4 6 11 10 12 20 28 29 29 31 34 36
31 10 11 23 31 43 44 21 9 9 6 7 7 6 6 4 3 6 6 6 4 1 2 2 2 3 3 3 3 4 5 4 5 5 3 5 4 2 3 7 14 15 9 3 3 3 3 3 3 2 3 4 5 4 3 5 2 2 3 3 5 5 5 4 6 3 2 1 1 3 3 5 1 1 1 4 5 6 12 13 13 18 22 23 25 28 32 34
26 13 11 17 25 39 34 10 5 9 5 5 6 6 7 5 4 6 6 6 4 2 2 1 1 3 2 2 3 4 5 4 5 5 3 3 4 3 3 8 14 13 6 2 2 3 3 2 3 1 3 2 4 4 2 2 1 1 3 1 4 4 2 2 3 2 2 3 1 2 4 4 2 1 1 2 2 5 12 15 13 15 19 21 24 27 31 33
21 14 12 16 24 33 24 6 7 10 4 4 7 7 7 5 6 8 6 6 5 3 3 2 2 3 1 2 3 4 5 4 4 5 3 3 4 2 4 10 12 8 3 3 5 8 6 2 3 2 2 3 2 2 2 2 1 3 3 2 4 3 5 3 2 2 1 4 4 2 5 4 2 2 3 4 3 5 9 13 12 12 16 19 22 25 29 32
14 8 9 18 30 32 19 6 7 9 7 7 7 9 8 4 7 13 10 8 8 6 4 3 4 4 3 2 2 2 4 3 2 2 2 2 2 1 3 6 8 5 2 3 9 12 7 2 4 6 6 7 5 3 4 3 2 2 2 3 4 5 6 3 1 2 4 4 6 5 7 3 2 3 3 4 2 4 7 10 11 10 12 17 20 23 27 30
10 4 4 11 24 27 17 9 7 7 9 10 6 7 11 6 4 11 13 10 10 9 4 2 5 5 3 4 4 3 4 3 2 2 3 4 3 1 1 3 4 3 3 6 11 10 4 0 5 7 8 8 5 3 2 2 4 3 3 4 5 5 6 4 2 4 4 3 5 8 5 2 2 3 2 2 2 4 5 8 12 11 11 14 16 19 23 27
6 4 5 6 9 12 11 9 7 4 7 12 7 4 11 11 3 6 11 9 10 12 4 2 4 5 4 7 7 5 5 4 3 3 3 4 2 2 1 2 2 3 4 5 6 5 3 2 5 5 7 6 4 3 2 2 3 4 4 6 7 6 7 7 7 7 4 3 8 8 5 4 6 6 6 5 6 5 5 10 15 14 11 11 10 12 15 19
4 4 9 10 5 4 6 7 6 4 5 9 7 4 9 13 8 7 8 4 6 13 7 0 6 10 9 9 7 5 6 6 6 5 3 3 2 1 2 2 3 4 5 3 2 4 3 3 4 4 6 9 5 4 5 5 4 6 8 11 13 12 12 13 13 10 8 8 10 4 7 8 8 6 8 10 10 8 10 15 15 12 10 10 8 9 12 14
3 3 8 11 5 2 3 4 4 6 5 6 6 6 9 14 13 8 4 3 3 8 8 6 9 12 12 10 8 6 7 7 7 7 5 4 4 4 2 0 1 2 4 3 1 3 3 3 3 5 6 9 7 4 5 7 7 7 11 15 15 14 13 13 14 11 9 9 8 1 5 9 7 6 8 10 9 9 11 13 12 11 12 12 12 15 18 20
2 2 4 7 3 3 2 2 3 5 5 4 5 5 6 10 13 7 3 6 6 4 7 12 11 10 11 11 10 11 12 10 6 6 7 6 4 4 3 3 3 2 2 3 1 2 3 2 2 4 4 6 4 4 5 7 8 8 14 15 9 6 7 10 10 6 4 6 8 5 7 11 6 7 8 8 9 10 12 15 15 15 16 17 19 21 22 21
4 2 4 4 2 1 1 2 2 2 3 4 4 1 2 6 9 7 3 6 8 5 9 14 9 7 8 10 13 14 11 7 4 3 5 4 3 3 3 3 6 5 3 3 2 3 3 1 2 3 4 4 2 3 5 4 2 8 17 14 7 7 7 7 6 6 7 9 8 7 9 10 3 7 7 9 12 12 15 18 20 21 21 21 21 21 19 19
8 4 3 3 1 1 2 1 2 2 2 4 4 1 1 1 3 6 4 3 2 3 8 12 9 6 5 9 12 10 3 0 3 4 3 4 4 3 3 4 7 7 5 5 2 2 4 4 2 3 4 2 1 2 4 3 1 9 14 11 13 13 9 3 3 7 11 10 7 7 9 6 3 6 5 7 9 11 15 19 21 22 21 19 19 18 16 15
Wind_Direction
236 236 235 234 233 233 232 230 231 232 231 231 234 237 239 242 247 253 253 258 264 269 275 279 285 288 293 298 303 306 308 310 308 309 309 308 305 288 249 225 226 245 274 302 294 265 247 241 261 317 296 265 20 37 48 39 40 32 91 89 21 183 188 185 183 190 161 286 297 342 355 6 323 322 325 318 306 301 301 306 317 357 360 342 330 319 304 298
242 243 243 243 242 242 242 240 240 239 241 242 243 246 247 250 254 255 256 261 264 267 272 277 283 288 294 300 304 307 309 308 306 305 306 306 296 214 163 162 203 266 299 293 262 227 224 228 250 313 308 271 12 24 39 24 38 61 107 79 253 203 207 205 189 191 170 294 283 320 330 313 290 301 319 309 295 311 312 313 328 5 349 350 335 315 297 294
242 243 244 245 245 246 246 246 246 245 246 247 248 249 250 251 254 254 257 260 263 267 272 277 283 289 295 299 304 308 311 311 310 308 303 292 142 133 125 106 34 338 323 296 257 229 213 221 248 254 288 39 4 4 28 21 29 68 94 67 247 218 239 252 219 216 242 290 292 310 305 289 289 289 295 279 302 307 298 304 314 336 341 353 356 348 340 331
241 241 242 242 243 243 245 245 245 245 245 246 247 248 249 250 254 256 260 262 265 268 272 277 282 289 293 297 303 307 315 318 314 307 158 140 133 123 98 40 4 348 334 305 260 233 219 232 251 244 284 27 1 356 16 14 18 115 130 171 225 189 259 270 243 249 265 276 280 293 300 300 302 284 260 228 330 301 290 311 320 325 335 353 4 8 8 2
240 240 240 239 240 240 242 242 243 243 242 243 244 246 249 251 256 259 263 266 268 271 274 280 284 289 292 296 300 304 321 336 342 140 147 148 150 148 21 343 341 340 337 312 253 229 226 238 240 236 20 10 9 20 16 20 67 167 208 210 206 155 239 293 315 291 270 272 285 289 296 301 302 290 261 224 237 274 298 317 315 319 333 358 1 3 4 5
240 239 240 239 239 239 241 241 241 242 241 242 242 245 248 251 257 261 266 270 273 275 277 281 285 288 291 293 297 302 313 307 231 166 173 197 234 263 285 306 328 330 328 308 251 229 227 230 228 228 43 26 9 39 37 37 113 234 265 276 280 218 249 292 311 309 292 287 291 289 291 295 294 298 282 249 250 265 291 302 306 320 351 2 356 354 353 359
241 240 240 240 239 239 240 239 240 241 241 242 243 246 250 255 261 265 271 274 275 278 280 283 285 286 289 291 294 296 277 256 263 242 229 247 262 271 275 289 311 313 315 300 248 227 225 223 216 180 70 23 341 129 39 348 162 147 264 303 315 274 270 292 304 301 295 290 290 293 291 287 284 296 290 270 275 288 288 289 306 334 358 355 349 347 347 349
244 242 240 240 240 240 239 239 240 241 243 244 246 250 255 261 266 270 273 275 277 279 282 284 285 285 287 287 289 286 271 267 269 258 253 254 257 266 269 279 295 297 302 286 242 222 225 225 224 210 80 324 246 211 19 333 245 150 238 293 310 290 291 300 302 297 296 294 295 295 281 278 285 278 275 282 297 326 180 143 105 323 333 338 342 347 347 338
247 244 242 241 240 240 240 240 241 242 244 246 250 254 259 265 268 270 272 273 276 278 281 283 283 284 283 281 282 281 276 277 274 264 261 256 252 256 260 271 278 281 292 271 230 217 223 222 229 231 247 246 213 241 76 44 279 200 239 296 302 297 302 303 300 296 298 297 295 288 276 286 301 274 279 302 335 106 125 133 133 237 317 333 341 343 341 336
248 246 244 243 241 242 241 241 241 243 245 248 252 257 261 264 266 269 270 272 274 275 278 279 280 280 278 274 264 260 276 279 274 267 267 266 258 254 256 263 265 267 281 260 224 219 222 221 237 228 239 250 157 170 122 143 288 301 307 305 294 297 303 300 293 290 292 292 283 260 274 295 316 260 272 81 97 123 148 140 137 316 326 338 337 333 333 334
248 246 245 243 242 242 242 242 243 244 247 251 255 259 261 264 266 267 268 270 271 274 275 275 279 276 274 269 239 234 270 276 272 269 267 271 268 263 256 251 251 251 252 240 219 224 227 227 234 213 226 212 136 222 225 217 304 322 330 311 298 309 307 293 286 287 286 290 283 239 264 301 309 219 166 106 87 142 188 137 116 326 334 336 325 322 322 323
246 245 244 243 242 241 241 242 244 246 250 253 257 259 261 263 264 266 267 268 269 271 272 273 276 273 274 269 253 256 274 274 270 268 264 265 267 267 256 240 237 235 233 233 229 234 235 233 231 230 231 180 151 337 205 236 319 320 353 327 307 335 323 295 292 290 226 264 300 185 278 302 235 192 143 96 71 144 140 101 136 223 309 309 310 313 314 321
244 242 242 241 240 240 240 242 244 248 251 254 257 258 260 262 262 264 264 265 268 268 270 271 272 274 274 268 266 271 274 269 268 266 263 261 262 260 250 236 230 228 235 249 255 247 237 233 229 226 216 179 172 178 193 6 341 303 11 32 319 347 328 305 14 22 32 283 235 129 291 278 253 223 113 80 98 116 41 75 130 163 198 261 288 302 315 327
242 240 239 238 238 238 239 242 246 249 252 254 254 255 257 259 259 261 263 265 266 266 268 269 270 271 266 265 272 272 265 262 260 257 258 256 254 249 242 234 229 233 247 259 258 246 232 225 221 211 197 186 165 160 271 4 29 295 8 43 355 350 280 299 341 284 347 300 182 144 258 263 270 297 77 71 46 5 25 72 109 149 176 231 270 298 318 332
242 239 236 235 235 236 238 242 246 248 250 250 251 253 254 256 258 259 262 263 263 264 265 266 267 268 266 267 269 267 260 254 251 249 250 250 247 239 234 233 236 244 254 254 241 226 216 209 206 191 170 173 149 129 355 353 13 18 349 305 330 178 264 307 325 200 189 281 134 139 218 273 282 298 62 36 355 351 38 83 103 123 151 214 268 306 324 340
241 238 234 233 232 234 237 240 243 245 244 245 246 249 251 254 257 258 260 260 261 262 263 265 264 259 264 272 267 262 255 247 244 245 243 244 241 234 233 235 239 243 242 233 218 205 198 195 188 165 159 156 130 101 45 352 335 360 184 246 265 202 275 321 332 283 181 145 63 105 214 282 289 109 46 11 359 8 63 98 111 116 111 105 344 321 328 338
240 236 233 230 230 232 236 238 240 240 240 240 241 245 249 252 254 257 258 258 259 260 261 260 260 260 259 263 261 254 250 244 239 237 237 238 235 232 229 227 225 223 217 205 198 193 188 181 166 168 147 107 106 100 66 312 281 306 296 233 247 217 236 295 307 348 58 115 21 359 192 260 263 148 21 359 13 40 100 120 125 125 104 81 57 341 328 334
236 234 231 229 230 231 233 236 237 237 236 236 239 243 246 250 253 256 257 258 256 259 266 242 220 284 263 248 246 249 246 236 230 230 229 227 223 219 215 212 212 203 185 178 188 184 180 168 142 141 29 77 127 119 158 232 217 201 184 207 249 233 238 253 260 306 26 25 298 252 234 264 271 286 27 9 10 87 130 136 142 129 106 92 75 47 12 359
232 230 229 229 230 231 232 234 234 234 234 233 238 242 247 253 256 258 256 250 237 229 255 223 196 192 254 248 246 245 240 224 222 225 221 216 207 202 199 195 194 182 160 156 190 177 167 126 96 196 226 185 184 173 199 213 180 176 170 164 193 222 250 240 236 256 323 344 275 237 234 258 272 284 36 37 58 124 139 143 143 133 118 118 103 83 62 30
229 227 227 227 228 230 231 232 233 233 231 232 235 239 247 251 258 263 251 243 240 239 247 240 224 229 247 273 259 226 220 214 219 222 214 208 200 191 183 172 167 169 159 158 183 173 162 145 191 224 210 188 200 201 203 184 133 144 144 152 191 220 261 254 242 273 191 192 266 241 233 255 265 277 26 87 127 121 138 144 139 141 132 127 115 99 85 61
227 226 225 225 225 226 227 229 231 231 230 230 231 232 234 228 225 266 258 255 257 253 252 252 249 247 249 255 248 225 221 224 231 224 210 202 192 183 178 165 147 163 197 146 126 133 142 176 226 230 200 185 206 202 188 149 134 137 150 190 246 228 254 263 246 294 304 183 272 299 273 270 265 277 31 99 134 116 152 151 143 145 136 130 123 110 103 92
230 227 225 223 220 219 222 226 229 231 230 227 228 227 227 228 234 256 277 282 272 262 255 252 249 248 247 244 242 236 226 232 235 217 205 194 189 189 179 165 154 171 177 121 109 103 140 220 241 231 139 129 127 168 184 202 187 170 134 167 275 240 267 290 297 339 19 172 273 326 299 274 274 352 52 59 102 100 157 159 149 148 139 132 126 118 120 116
237 232 225 221 215 214 219 224 228 231 230 227 228 227 229 238 245 260 277 286 279 269 256 250 246 245 244 241 239 235 224 231 235 217 208 195 189 194 180 163 157 145 157 180 166 152 176 245 245 197 132 127 82 131 164 189 211 195 156 175 253 236 87 284 296 343 16 129 255 283 297 279 282 60 59 54 93 97 109 135 138 143 138 130 128 125 128 126
239 235 224 215 210 212 216 220 227 231 230 228 230 227 228 238 245 271 283 279 283 271 255 248 244 244 243 239 236 232 226 231 234 219 209 197 184 183 188 173 139 144 196 200 181 180 220 254 206 136 139 160 167 140 147 172 233 233 194 205 233 224 208 229 285 331 341 14 38 117 343 294 280 266 258 77 96 93 100 120 122 130 134 131 134 134 132 127
236 233 219 208 207 208 209 218 226 229 230 230 230 224 222 228 237 279 301 300 284 270 256 241 235 238 237 234 230 222 223 231 232 223 208 198 188 173 180 179 159 200 210 178 172 217 250 257 129 116 128 168 175 190 186 181 208 281 225 214 221 221 219 227 340 7 2 345 329 82 326 290 307 294 223 168 109 88 101 117 117 127 137 141 143 137 133 129
237 229 213 205 203 198 202 222 229 230 230 230 226 215 213 211 205 263 21 12 284 243 206 207 209 219 218 217 208 195 210 246 228 218 203 198 197 183 165 171 162 214 186 148 167 224 247 250 144 138 144 148 168 228 225 172 148 270 242 208 212 208 203 204 147 96 183 253 294 72 180 256 316 311 229 161 130 106 106 118 133 144 147 151 149 142 138 132
237 225 210 204 198 190 201 221 226 224 224 226 219 203 200 186 159 116 66 353 276 194 152 171 173 181 195 189 176 168 180 217 189 199 193 190 196 191 189 180 144 201 157 130 226 241 206 217 152 151 141 140 177 234 220 159 139 234 241 157 165 178 187 191 163 169 225 245 321 3 158 238 287 279 244 136 146 243 218 211 190 165 159 158 154 148 143 135
236 222 209 204 198 191 200 216 220 215 215 220 207 192 184 171 160 120 89 291 265 139 135 165 159 169 176 167 167 163 135 135 139 186 185 183 189 189 207 205 170 177 155 150 220 260 169 194 200 175 157 181 203 222 186 160 155 244 196 119 133 155 161 149 138 170 262 14 299 292 169 247 265 264 303 119 201 251 214 212 216 184 172 168 162 155 147 140
232 219 209 202 196 193 199 211 215 210 210 204 192 184 169 158 149 102 93 243 207 112 126 154 150 158 151 155 174 175 106 110 107 171 172 178 187 179 201 203 162 142 138 163 217 259 99 208 206 161 163 205 204 271 179 170 189 185 126 90 75 73 80 90 112 127 61 58 243 238 187 212 272 280 262 154 238 247 205 203 207 187 179 174 168 161 152 146
228 217 205 195 191 192 199 211 212 204 198 188 183 175 158 146 126 112 208 232 170 104 118 149 160 158 144 144 189 211 126 83 104 141 151 170 181 161 123 154 126 122 47 359 254 255 346 89 194 158 182 187 135 75 153 154 142 138 112 67 51 36 39 39 59 94 72 275 245 234 207 204 265 277 235 197 223 206 162 172 193 187 186 180 174 166 157 152
225 214 201 192 192 193 201 211 209 198 192 184 177 166 154 137 85 174 213 228 80 116 111 143 174 151 152 150 175 170 115 64 130 140 139 146 162 142 119 138 104 89 5 331 289 306 334 111 260 215 181 140 102 71 54 89 119 122 95 85 82 352 11 23 358 47 161 255 263 276 257 198 229 258 246 226 226 184 158 172 182 186 190 184 177 170 163 157
224 212 199 195 196 198 205 212 207 194 189 181 172 162 147 128 214 212 224 41 116 198 151 169 187 160 167 133 114 157 119 120 165 147 141 139 160 177 170 173 161 98 323 249 240 327 294 234 266 257 189 167 120 78 46 38 78 104 103 111 108 331 360 358 305 271 227 246 272 309 287 216 234 247 233 208 202 219 232 213 191 186 187 184 179 173 167 162
220 207 198 197 200 203 209 214 208 195 189 176 168 160 134 206 218 211 217 217 200 195 125 129 120 122 146 132 152 169 118 165 186 157 141 124 154 211 244 194 157 130 174 199 183 263 279 290 265 137 226 198 166 143 158 189 159 155 148 138 137 139 134 257 256 260 265 256 287 297 272 253 263 267 240 216 235 290 272 251 212 193 187 182 178 174 171 167
214 203 198 197 203 208 210 213 208 199 189 173 164 154 155 225 223 187 197 212 239 67 82 106 102 107 141 167 222 177 139 215 176 142 131 126 148 215 239 224 179 117 103 138 165 176 213 292 209 182 207 187 180 175 159 144 147 185 166 137 147 157 171 214 213 209 248 280 305 289 231 197 211 260 269 257 308 334 287 248 208 196 190 182 177 177 177 172
211 203 200 200 208 212 211 213 208 200 192 176 162 165 200 218 225 161 188 197 163 83 57 79 104 122 184 248 260 198 185 220 164 134 160 165 176 200 197 204 194 153 132 161 216 169 181 266 247 247 141 162 178 180 129 114 128 215 129 112 169 187 158 162 187 173 174 302 297 219 216 218 190 231 296 296 348 22 16 169 171 182 187 182 181 182 181 176
211 204 203 206 212 213 212 214 207 198 194 183 169 205 207 216 209 162 183 173 162 143 110 81 95 125 206 240 247 227 216 172 148 146 197 200 215 207 194 211 194 181 169 164 193 160 144 270 282 357 40 146 179 174 123 123 171 163 133 178 219 185 121 109 245 60 86 263 271 194 244 286 337 300 299 358 2 7 32 133 160 172 178 181 185 186 184 180
210 205 207 211 214 213 211 213 208 199 196 190 195 215 209 223 192 162 191 154 144 141 136 178 191 159 193 206 204 208 193 131 155 162 201 207 228 200 197 237 193 187 197 179 196 198 152 261 293 90 137 301 75 111 72 52 116 127 183 209 199 139 92 104 222 347 52 241 271 213 229 263 245 255 293 10 296 265 242 177 163 170 177 183 188 189 187 183
209 207 212 214 213 210 207 211 211 202 197 194 217 220 208 206 187 149 162 144 128 145 161 205 200 170 186 192 195 187 171 176 173 172 189 201 243 191 173 212 192 192 203 188 172 237 148 232 297 60 166 284 37 101 69 18 62 121 181 182 124 146 156 108 166 224 207 241 278 288 262 242 200 208 213 212 227 222 206 193 178 180 185 189 193 192 189 185
208 208 219 219 213 208 206 209 209 201 196 195 218 221 198 155 187 152 161 154 118 159 186 205 190 159 174 174 170 170 173 182 171 171 187 188 229 194 169 188 191 198 202 183 167 231 132 178 268 308 221 222 36 107 171 229 354 61 95 100 48 156 167 156 159 170 177 221 275 298 304 271 222 199 180 199 214 197 181 189 197 197 194 195 196 194 191 189
205 204 226 223 214 211 210 211 206 198 197 213 213 217 133 126 189 169 169 166 119 165 200 199 169 153 166 170 167 171 177 182 172 179 209 189 197 207 193 182 153 178 192 176 179 187 112 178 234 305 327 153 166 208 190 187 180 145 146 175 212 120 118 189 194 133 140 167 219 266 279 271 248 196 184 214 230 190 183 188 194 201 201 200 199 196 194 193
202 202 231 219 215 215 212 208 203 196 212 223 219 226 192 152 174 177 179 176 145 130 153 158 165 164 161 168 186 180 164 162 174 187 222 202 191 203 205 184 156 145 133 151 195 199 164 176 180 197 200 177 229 248 204 196 190 176 187 190 187 168 129 185 239 198 139 170 182 211 262 271 252 173 206 259 270 203 193 188 191 205 207 205 204 201 199 198
196 205 226 209 212 211 204 197 197 201 217 217 218 222 189 147 154 182 184 176 158 105 105 113 136 158 166 172 174 168 155 152 180 188 198 208 203 198 206 179 160 152 134 133 196 183 149 125 135 198 216 210 251 270 213 218 217 179 218 200 180 180 157 179 225 220 133 209 154 138 256 278 267 115 282 267 265 222 197 193 198 208 210 210 209 206 205 204
192 202 210 203 210 204 194 190 207 200 214 209 199 201 182 165 172 178 182 186 166 124 144 143 158 181 193 172 147 162 172 172 181 183 190 209 209 213 190 164 157 152 137 134 168 149 142 128 137 245 302 304 305 313 264 213 122 201 250 179 162 197 171 162 207 148 138 217 167 106 249 270 322 9 15 322 265 197 191 197 205 209 208 210 212 210 210 209
186 191 184 187 198 195 189 195 204 196 200 180 188 197 188 184 186 177 179 189 178 149 156 175 181 183 187 140 150 174 183 186 191 189 190 198 201 187 154 160 163 162 166 186 169 166 175 169 137 144 325 322 326 316 267 261 188 210 231 183 171 148 101 88 99 97 233 218 168 190 248 251 309 339 13 31 93 155 188 200 208 213 208 208 212 213 214 214
180 177 166 177 186 190 197 216 196 195 203 192 193 192 185 195 203 194 186 178 179 170 158 175 164 146 142 134 131 181 185 182 188 180 167 190 216 170 133 166 173 165 175 169 156 160 169 173 159 176 216 227 223 224 221 211 190 207 210 195 194 159 148 156 127 174 237 192 157 219 247 250 320 321 346 5 62 157 196 204 211 218 210 210 214 216 218 218
170 157 149 177 189 199 218 231 198 187 201 204 204 190 191 204 210 196 192 188 189 177 144 134 140 126 144 174 171 202 210 190 153 158 175 193 226 285 104 159 167 144 120 127 139 144 134 204 195 205 227 218 196 219 229 122 130 194 216 196 200 191 178 167 144 202 218 163 191 230 220 174 275 250 243 301 232 197 207 205 210 215 213 215 219 221 223 224
162 169 159 156 194 216 234 233 209 187 198 199 195 186 198 202 192 188 199 201 187 174 146 55 145 162 188 185 182 201 206 195 180 179 182 182 203 334 48 97 99 134 137 117 122 120 95 226 213 218 244 230 174 185 206 111 143 203 219 226 228 212 184 188 213 212 158 166 239 235 159 176 230 209 199 224 217 213 213 203 207 213 214 215 217 221 225 228
157 166 168 162 166 214 228 224 206 196 209 200 189 178 194 200 198 192 198 198 173 175 175 357 193 197 196 181 182 195 192 201 213 201 181 171 171 81 33 34 63 128 147 124 102 116 122 230 216 190 246 258 247 209 177 166 207 217 216 230 233 221 202 203 220 214 176 207 249 220 151 207 233 196 194 212 208 202 199 200 206 212 210 210 213 224 234 241
127 114 158 169 159 134 197 207 187 197 216 208 197 193 195 201 204 193 155 116 167 189 193 209 211 206 201 188 178 188 191 195 212 208 182 173 179 155 133 240 99 129 136 118 117 139 142 227 203 174 235 255 246 214 176 185 211 220 223 229 229 221 210 206 218 217 199 228 259 196 179 232 236 190 199 216 215 210 211 217 224 219 213 219 234 246 253 255
133 81 122 150 130 68 88 112 153 195 215 215 217 213 201 205 205 196 149 157 179 186 194 211 212 194 191 189 184 204 209 193 193 200 178 175 190 180 184 189 147 114 121 125 146 181 173 205 143 146 222 248 222 181 187 205 212 223 236 235 215 195 205 211 217 201 166 237 253 236 241 256 236 169 185 218 227 228 235 242 244 240 238 247 256 259 262 260
188 136 105 116 99 62 64 69 141 195 220 211 222 221 181 213 206 191 188 200 196 180 191 207 202 162 174 193 199 211 209 167 141 152 159 176 197 188 206 185 147 139 153 157 157 170 181 191 71 116 214 240 194 166 187 204 225 248 248 236 179 173 208 204 198 186 185 214 226 224 244 258 220 146 175 223 225 222 233 240 245 252 255 258 260 261 261 259
209 201 163 123 70 173 163 99 151 203 219 195 210 239 132 184 178 171 191 237 203 173 196 197 173 134 166 198 207 223 240 273 288 282 244 245 246 230 235 194 163 157 165 167 156 150 166 162 132 168 209 234 26 152 154 121 262 257 251 220 184 202 219 171 162 211 208 200 200 217 235 242 170 143 185 233 223 216 232 240 247 256 260 259 259 257 255 252